Location: Brabourne
(51.1333°N, 1.0000°E)
Time: 08:11:10
(UTC+00:00)

SL-16 R/B - Pass Details

Date: 20 June 2021
Orbit: 985 x 1007 km, 99.5° (Epoch: 31 July)

Event Time Altitude Azimuth Distance (km) Brightness Sun altitude
Exits shadow 00:59:49 - 148° (SSE) 3,055 4.7 -14.2°
Reaches altitude 10° 01:00:36 10° 147° (SSE) 2,755 4.5 -14.1°
Maximum altitude 01:06:42 65° 68° (ENE) 1,088 2.9 -13.9°
Drops below altitude 10° 01:12:50 10° 348° (NNW) 2,760 5.8 -13.6°
Sets 01:15:19 0° 346° (NNW) 3,710 6.6 -13.5°
